Location: Waldport
(44.4270°N, 124.0680°W)
Time: 19:21:21
(UTC-08:00)

OTV 5 (USA 277) - Pass Details

Date: 30 October 2019
Orbit: 310 x 324 km, 54.5° (Epoch: 17 October)

Event Time Altitude Azimuth Distance (km) Brightness Sun altitude
Rises 19:36:57 0° 240° (WSW) 2,052 ? -16.3°
Reaches altitude 10° 19:38:55 10° 244° (WSW) 1,227 ? -16.6°
Maximum altitude 19:41:37 60° 325° (NW) 375 ? -17.1°
Enters shadow 19:42:01 51° 10° (N) 415 ? -17.2°
